Location: Colle San Luigi
(43.5500°N, 13.4167°E)
Time: 02:52:49
(UTC+00:00)

SL-4 R/B - Pass Details

Date: 09 April 2020
Orbit: 428 x 666 km, 51.6° (Epoch: 29 May)

Event Time Altitude Azimuth Distance (km) Brightness Sun altitude
Rises 19:03:04 0° 273° (W) 2,395 6.6 -14.5°
Reaches altitude 10° 19:05:24 10° 287° (WNW) 1,524 5.6 -14.9°
Maximum altitude 19:08:19 26° 346° (NNW) 891 3.5 -15.4°
Drops below altitude 10° 19:11:16 10° 45° (NE) 1,547 4.1 -15.8°
Enters shadow 19:11:39 - 49° (NE) 1,684 4.3 -15.9°
